To NAV CANADA Home Page Login to a new session Search on AWWS site Feedback and Comments Disclaimer Vers la page française équivalente Tips FAQ What's new on the site To the Forecasts and Observations / NOTAM section To "File a Flight Plan" website Publications and other links Update of the User's profile FIC Telephone Numbers My Weather Data Folder Route Weather Data Regional Weather Data Local Weather Data To the Forecasts and Observations / NOTAM section
Request Generated 05/25/2017 at 01:13:28 UTC . Weather information available at that time is displayed.

METAR/TAF

OLD CROW/YT    

LWIS CYOC 250000Z AUTO 00000KT 16/M01 A2980=
LWIS CYOC 242300Z AUTO VRB02KT 15/M01 A2983=
LWIS CYOC 242200Z AUTO VRB03KT 15/M00 A2986=

*** REMARK        : Forecast period has ended; this was the last TAF issued
*** REMARQUE : La période de prévision est échue; ceci était le dernier TAF qui a été émis
TAF AMD CYOC 242120Z 2418/2501 FCST CNCLD DUE NO OBS
RMK NXT FCST WILL BE ISSUED AT 251445Z=
Your time UTC time
Weather data provided by Environment Canada and NAV CANADA